SL-8 R/B

Satellite information

Favourite Embed

Satellite Type and Status

ROCKET BODYIN ORBIT

Key statistics

Satellite SL-8 R/B at a glance.

Uptime

19798

Days in orbit

Revolutions

≈ 14.4

Per day

Orbit

LEO

Low Earth Orbit

Inclination

74.0

Latest

Satellite identification and parameters

Extended collection of information and parameters for SL-8 R/B.

Object identification

Identified? True

Debris? False

Object name: SL-8 R/B

International designator: 1971-035B

Object number (NORAD): 5175

Object ID (CCSDS): 5175

Country: COMMONWEALTH OF INDEPENDENT STATES (CIS)

Current information (Y/N): Y

RCS size: LARGE

Orbital parameters

Period: 100.05 minutes

Inclination: 74.046 deg

SMA: 7139.004 km

Apoapsis: 781.452 km

Periapsis: 740.285 km

RAAN: 196.0961 deg

Eccentricy: 0.0028833

Argument of periapsis: 33.7562 deg

Mean anomaly: 326.542 deg

Mean motion: 14.39283554 rev/day

Mean motion (dot): 0.0000026 rev/day2

B* drag term: 0.000091862 1/REarth

Two-line elements (TLE)

Creation date: July 5, 2025, 5:45 p.m.

Reference frame: TEME

Reference center: EARTH

Epoch: July 5, 2025, 10:46 a.m. UTC

TLE line 0: 0 SL-8 R/B

TLE line 1: 1 05175U 71035B 25186.44891907 .00000260 00000-0 91862-4 0 9996

TLE line 2: 2 05175 74.0460 196.0961 0028833 33.7562 326.5420 14.39283554837377

Live tracking on map

Real-time ground track for satellite SL-8 R/B.

In-orbit conjunctions

A list of the most updated potential collisions computed for object SL-8 R/B.

Target Orbit TCA Probability of collision Miss distance Type
RITE TARGET 1 SSO 2025-05-07 05:05:59 0.001479418 56.0 (m) PAYLOAD
MOLNIYA 3-13 HEO 2025-02-11 09:38:32 0.001292633 197.0 (m) PAYLOAD
FENGYUN 1C DEB SSO 2025-01-07 09:36:14 0.0003122889 364.0 (m) DEBRIS
CZ-2D DEB SSO 2024-08-29 23:30:56 0.0001127681 842.0 (m) DEBRIS
CZ-6A DEB SSO 2024-08-06 15:15:24 0.0001240074 406.0 (m) DEBRIS

Associated space launch

Military communications satellite

SL-8 R/B was lifted into orbit during the mission ‘Kosmos-3M | Strela-2M 3’, on board a Kosmos-3M space rocket.

The launch took place on April 23, 1971, 11:30 a.m. from 132/1 (132L).

For more information about the launch, click the button.

Launch to space Kosmos-3M | Strela-2M 3
Kosmos-3M | Strela-2M 3

Agency: N/A

Status: Launch Successful

Launch date: April 23, 1971, 11:30 a.m. UTC

Rocket: Kosmos-3M

Launch pad: 132/1 (132L)

Location: Plesetsk Cosmodrome, Russian Federation

...

Latest news about this satellite

There are no fresh news available about this satellite. Check back as we update our databases every day.


Newsletter sign-up

Weekly statistics, charts and insights to help you stay on top of the space industry.